Location: London
(51.5074°N, 0.1278°W)
Time: 14:17:54
(UTC+01:00)

ISS - Pass Details

Date: 03 April 2018
Orbit: 403 x 408 km, 51.6° (Epoch: 18 October)

Event Time Altitude Azimuth Distance (km) Brightness Sun altitude
Rises 20:35:25 0° 276° (W) 2,376 1.8 -9.6°
Reaches altitude 10° 20:37:30 10° 277° (W) 1,512 0.5 -9.9°
Maximum altitude 20:40:55 88° 190° (S) 430 -3.8 -10.3°
Enters shadow 20:43:32 16° 99° (E) 1,193 -2.1 -10.7°
